User: anonymous   Login
Location: Unspecified
(0.0000°N, 0.0000°E)
Time: 18:43:29
(UTC+00:00)
Language:

KAITUO 1B - Orbit

View from above orbital plane
View from above orbital plane
View from above satellite
View from above satellite

Ground track
Ground track

The orbit data is extracted from the following two-line orbital elements,

1 40912U 15049P   19230.81677463 +.00000666 +00000-0 +34399-4 0  9992
2 40912 097.4501 237.3785 0013788 324.8820 159.1557 15.19686936216593
Epoch (UTC): 18 August 2019 19:36:09
Eccentricity: 0.0013788
inclination: 97.4501°
perigee height: 497 km
apogee height: 516 km
right ascension of ascending node: 237.3785°
argument of perigee: 324.8820°
revolutions per day: 15.19686936
mean anomaly at epoch: 159.1557°
orbit number at epoch: 21659

The dashed part of the orbit path shows where the satellite is in the earth's shadow,  

DLR